| time (UTC) | temp F | wind direction | speed MPH | gust MPH | rain 1hr in | rain 24hr in | rain mn in | humidity % | barometer mb |
| 20260507103601 | 55 | 227 | 3.0 | 8.0 | 0.00 | 0.00 | 0.00 | 51 | 1015.7 |
| 20260507103113 | 55 | 257 | 2.0 | 8.0 | 0.00 | 0.00 | 0.00 | 50 | 1015.8 |
| 20260507102529 | 55 | 267 | 3.0 | 7.0 | 0.00 | 0.00 | 0.00 | 50 | 1015.7 |
| 20260507102021 | 55 | 323 | 3.0 | 6.0 | 0.00 | 0.00 | 0.00 | 50 | 1015.7 |
| 20260507101613 | 55 | 277 | 2.0 | 7.0 | 0.00 | 0.00 | 0.00 | 50 | 1015.6 |
| 20260507101018 | 55 | 306 | 3.0 | 7.0 | 0.00 | 0.00 | 0.00 | 50 | 1015.6 |
| 20260507100531 | 55 | 270 | 3.0 | 6.0 | 0.00 | 0.00 | 0.00 | 49 | 1015.7 |
| 20260507100131 | 56 | 244 | 2.0 | 7.0 | 0.00 | 0.00 | 0.00 | 50 | 1015.6 |
| 20260507095534 | 56 | 214 | 3.0 | 7.0 | 0.00 | 0.00 | 0.00 | 49 | 1015.5 |
| 20260507095039 | 55 | 244 | 2.0 | 7.0 | 0.00 | 0.00 | 0.00 | 49 | 1015.6 |
| 20260507094619 | 56 | 232 | 2.0 | 9.0 | 0.00 | 0.00 | 0.00 | 49 | 1015.3 |
| 20260507094110 | 56 | 272 | 4.0 | 9.0 | 0.00 | 0.00 | 0.00 | 49 | 1015.5 |
| 20260507093541 | 55 | 282 | 2.0 | 8.0 | 0.00 | 0.00 | 0.00 | 50 | 1015.5 |
| 20260507093125 | 56 | 271 | 2.0 | 8.0 | 0.00 | 0.00 | 0.00 | 49 | 1015.6 |
| 20260507092521 | 56 | 257 | 3.0 | 7.0 | 0.00 | 0.00 | 0.00 | 49 | 1015.6 |
| 20260507092018 | 56 | 275 | 3.0 | 10.0 | 0.00 | 0.00 | 0.00 | 49 | 1015.5 |
| 20260507091611 | 55 | 252 | 2.0 | 8.0 | 0.00 | 0.00 | 0.00 | 50 | 1015.5 |
| 20260507091023 | 55 | 273 | 2.0 | 8.0 | 0.00 | 0.00 | 0.00 | 51 | 1015.6 |
| 20260507090536 | 55 | 248 | 2.0 | 6.0 | 0.00 | 0.00 | 0.00 | 51 | 1015.5 |
| 20260507090132 | 55 | 305 | 3.0 | 6.0 | 0.00 | 0.00 | 0.00 | 51 | 1015.5 |
| 20260507085531 | 55 | 277 | 2.0 | 4.0 | 0.00 | 0.00 | 0.00 | 51 | 1015.6 |
| 20260507085047 | 55 | 294 | 1.0 | 4.0 | 0.00 | 0.00 | 0.00 | 50 | 1015.5 |
| 20260507084601 | 56 | 250 | 1.0 | 7.0 | 0.00 | 0.00 | 0.00 | 51 | 1015.5 |
| 20260507084041 | 56 | 298 | 2.0 | 7.0 | 0.00 | 0.00 | 0.00 | 50 | 1015.3 |
| 20260507083547 | 56 | 290 | 2.0 | 7.0 | 0.00 | 0.00 | 0.00 | 49 | 1015.5 |
| 20260507083125 | 56 | 258 | 2.0 | 5.0 | 0.00 | 0.00 | 0.00 | 50 | 1015.6 |
| 20260507082532 | 56 | 203 | 3.0 | 5.0 | 0.00 | 0.00 | 0.00 | 50 | 1015.2 |
| 20260507082109 | 56 | 286 | 2.0 | 7.0 | 0.00 | 0.00 | 0.00 | 50 | 1015.1 |
| 20260507081540 | 56 | 289 | 2.0 | 9.0 | 0.00 | 0.00 | 0.00 | 50 | 1015.1 |
| 20260507081047 | 56 | 235 | 2.0 | 9.0 | 0.00 | 0.00 | 0.00 | 50 | 1015.3 |
| 20260507080526 | 56 | 236 | 2.0 | 5.0 | 0.00 | 0.00 | 0.00 | 49 | 1015.2 |
| 20260507080106 | 56 | 186 | 2.0 | 5.0 | 0.00 | 0.00 | 0.00 | 49 | 1015.1 |
| 20260507075524 | 56 | 259 | 2.0 | 5.0 | 0.00 | 0.00 | 0.00 | 49 | 1015.0 |
| 20260507075029 | 56 | 234 | 3.0 | 6.0 | 0.00 | 0.00 | 0.00 | 49 | 1015.0 |
| 20260507074608 | 56 | 277 | 2.0 | 6.0 | 0.00 | 0.00 | 0.00 | 50 | 1014.9 |
| 20260507074056 | 56 | 257 | 2.0 | 6.0 | 0.00 | 0.00 | 0.00 | 50 | 1014.9 |
| 20260507073534 | 56 | 264 | 3.0 | 5.0 | 0.00 | 0.00 | 0.00 | 51 | 1014.8 |
| 20260507073052 | 55 | 265 | 3.0 | 7.0 | 0.00 | 0.00 | 0.00 | 52 | 1015.0 |
| 20260507072540 | 55 | 224 | 3.0 | 7.0 | 0.00 | 0.00 | 0.00 | 52 | 1014.9 |
| 20260507072045 | 55 | 262 | 2.0 | 5.0 | 0.00 | 0.00 | 0.00 | 53 | 1014.9 |
| 20260507071637 | 56 | 227 | 2.0 | 5.0 | 0.00 | 0.00 | 0.00 | 52 | 1014.9 |
| 20260507071042 | 56 | 244 | 3.0 | 5.0 | 0.00 | 0.00 | 0.00 | 53 | 1014.7 |
| 20260507070533 | 56 | 223 | 3.0 | 7.0 | 0.00 | 0.00 | 0.00 | 52 | 1014.7 |
| 20260507070104 | 56 | 236 | 3.0 | 7.0 | 0.00 | 0.00 | 0.00 | 52 | 1014.7 |
| 20260507065518 | 56 | 236 | 3.0 | 7.0 | 0.00 | 0.00 | 0.00 | 53 | 1014.9 |
| 20260507065037 | 56 | 249 | 2.0 | 6.0 | 0.00 | 0.00 | 0.00 | 52 | 1014.9 |
| 20260507064809 | 57 | 200 | 3.0 | 6.0 | 0.00 | 0.00 | 0.00 | 51 | 1015.1 |
| 20260507064018 | 57 | 229 | 3.0 | 9.0 | 0.00 | 0.00 | 0.00 | 50 | 1014.8 |
| 20260507063539 | 57 | 138 | 2.0 | 9.0 | 0.00 | 0.00 | 0.00 | 50 | 1014.9 |
| 20260507063056 | 57 | 244 | 2.0 | 8.0 | 0.00 | 0.00 | 0.00 | 50 | 1014.7 |
| 20260507062530 | 57 | 273 | 2.0 | 7.0 | 0.00 | 0.00 | 0.00 | 50 | 1014.6 |
| 20260507062409 | 58 | 219 | 3.0 | 7.0 | 0.00 | 0.00 | 0.00 | 49 | 1014.4 |
| 20260507061638 | 57 | 221 | 2.0 | 8.0 | 0.00 | 0.00 | 0.00 | 50 | 1014.4 |
| 20260507061032 | 57 | 234 | 2.0 | 7.0 | 0.00 | 0.00 | 0.00 | 50 | 1014.3 |
| 20260507060532 | 57 | 229 | 2.0 | 6.0 | 0.00 | 0.00 | 0.00 | 51 | 1014.2 |
| 20260507060112 | 57 | 243 | 2.0 | 7.0 | 0.00 | 0.00 | 0.00 | 52 | 1014.3 |
| 20260507055606 | 57 | 259 | 3.0 | 7.0 | 0.00 | 0.00 | 0.00 | 51 | 1014.4 |
| 20260507055037 | 57 | 242 | 4.0 | 8.0 | 0.00 | 0.00 | 0.00 | 51 | 1014.6 |
| 20260507054618 | 58 | 286 | 3.0 | 7.0 | 0.00 | 0.00 | 0.00 | 51 | 1014.6 |
| 20260507054037 | 58 | 207 | 3.0 | 7.0 | 0.00 | 0.00 | 0.00 | 49 | 1014.8 |
| 20260507053532 | 59 | 229 | 2.0 | 10.0 | 0.00 | 0.00 | 0.00 | 49 | 1014.9 |
| 20260507053131 | 59 | 245 | 2.0 | 9.0 | 0.00 | 0.00 | 0.00 | 49 | 1015.0 |
| 20260507052518 | 58 | 200 | 2.0 | 6.0 | 0.00 | 0.00 | 0.00 | 49 | 1014.9 |
| 20260507052030 | 59 | 319 | 2.0 | 6.0 | 0.00 | 0.00 | 0.00 | 48 | 1014.7 |
| 20260507051611 | 59 | 213 | 3.0 | 6.0 | 0.00 | 0.00 | 0.00 | 49 | 1014.7 |
| 20260507051023 | 59 | 245 | 1.0 | 4.0 | 0.00 | 0.00 | 0.00 | 48 | 1014.8 |
| 20260507050558 | 59 | 266 | 0.0 | 4.0 | 0.00 | 0.00 | 0.00 | 48 | 1014.7 |
| 20260507050117 | 59 | 252 | 1.0 | 7.0 | 0.00 | 0.00 | 0.00 | 48 | 1014.5 |
| 20260507045519 | 59 | 249 | 1.0 | 7.0 | 0.00 | 0.00 | 0.00 | 48 | 1014.4 |
| 20260507045058 | 59 | 246 | 0.0 | 4.0 | 0.00 | 0.00 | 0.00 | 48 | 1014.5 |
| 20260507044612 | 59 | 254 | 1.0 | 5.0 | 0.00 | 0.00 | 0.00 | 48 | 1014.5 |
| 20260507044024 | 60 | 297 | 2.0 | 5.0 | 0.00 | 0.00 | 0.00 | 47 | 1014.4 |
| 20260507043531 | 60 | 234 | 2.0 | 6.0 | 0.00 | 0.00 | 0.00 | 47 | 1014.4 |
| 20260507043035 | 60 | 228 | 2.0 | 6.0 | 0.00 | 0.00 | 0.00 | 47 | 1014.4 |
| 20260507042516 | 60 | 207 | 1.0 | 7.0 | 0.00 | 0.00 | 0.00 | 47 | 1014.2 |
| 20260507042024 | 60 | 340 | 2.0 | 6.0 | 0.00 | 0.00 | 0.00 | 46 | 1014.4 |
| 20260507041621 | 60 | 242 | 3.0 | 8.0 | 0.00 | 0.00 | 0.00 | 46 | 1014.3 |
| 20260507041038 | 61 | 244 | 2.0 | 8.0 | 0.00 | 0.00 | 0.00 | 46 | 1014.4 |
| 20260507040516 | 61 | 264 | 2.0 | 9.0 | 0.00 | 0.00 | 0.00 | 47 | 1014.5 |
| 20260507040110 | 61 | 248 | 3.0 | 8.0 | 0.00 | 0.00 | 0.00 | 46 | 1014.3 |
| 20260507035537 | 61 | 261 | 3.0 | 8.0 | 0.00 | 0.00 | 0.00 | 46 | 1014.3 |
| 20260507035032 | 61 | 269 | 3.0 | 8.0 | 0.00 | 0.00 | 0.00 | 46 | 1014.2 |
| 20260507034615 | 61 | 262 | 3.0 | 8.0 | 0.00 | 0.00 | 0.00 | 45 | 1014.4 |
| 20260507034016 | 61 | 288 | 3.0 | 6.0 | 0.00 | 0.00 | 0.00 | 45 | 1014.2 |
| 20260507033515 | 62 | 240 | 3.0 | 7.0 | 0.00 | 0.00 | 0.00 | 44 | 1014.2 |
| 20260507033111 | 62 | 266 | 3.0 | 7.0 | 0.00 | 0.00 | 0.00 | 44 | 1014.2 |
| 20260507032522 | 62 | 235 | 3.0 | 7.0 | 0.00 | 0.00 | 0.00 | 43 | 1014.1 |
| 20260507032046 | 62 | 244 | 1.0 | 4.0 | 0.00 | 0.00 | 0.00 | 43 | 1014.1 |
| 20260507031617 | 63 | 205 | 2.0 | 8.0 | 0.00 | 0.00 | 0.00 | 42 | 1014.1 |
| 20260507031041 | 63 | 252 | 1.0 | 8.0 | 0.00 | 0.00 | 0.00 | 41 | 1014.1 |
| 20260507030539 | 63 | 219 | 1.0 | 4.0 | 0.00 | 0.00 | 0.00 | 41 | 1013.8 |
| 20260507030115 | 64 | 146 | 2.0 | 5.0 | 0.00 | 0.00 | 0.00 | 40 | 1013.7 |
| 20260507025524 | 64 | 210 | 2.0 | 5.0 | 0.00 | 0.00 | 0.00 | 40 | 1013.7 |
| 20260507025024 | 64 | 201 | 1.0 | 6.0 | 0.00 | 0.00 | 0.00 | 40 | 1013.7 |
| 20260507024555 | 64 | 198 | 1.0 | 5.0 | 0.00 | 0.00 | 0.00 | 40 | 1013.6 |
| 20260507024038 | 64 | 226 | 1.0 | 5.0 | 0.00 | 0.00 | 0.00 | 39 | 1013.6 |
| 20260507023516 | 65 | 223 | 1.0 | 5.0 | 0.00 | 0.00 | 0.00 | 38 | 1013.5 |
| 20260507023037 | 65 | 257 | 1.0 | 5.0 | 0.00 | 0.00 | 0.00 | 38 | 1013.5 |
| 20260507022541 | 65 | 273 | 1.0 | 9.0 | 0.00 | 0.00 | 0.00 | 38 | 1013.5 |
| 20260507022026 | 65 | 162 | 2.0 | 9.0 | 0.00 | 0.00 | 0.00 | 37 | 1013.5 |
| 20260507021624 | 66 | 265 | 1.0 | 7.0 | 0.00 | 0.00 | 0.00 | 37 | 1013.3 |
| 20260507021042 | 66 | 221 | 1.0 | 7.0 | 0.00 | 0.00 | 0.00 | 36 | 1013.2 |
| 20260507020530 | 66 | 318 | 3.0 | 8.0 | 0.00 | 0.00 | 0.00 | 36 | 1013.4 |
| 20260507020122 | 66 | 244 | 3.0 | 8.0 | 0.00 | 0.00 | 0.00 | 36 | 1013.3 |
| 20260507015522 | 67 | 201 | 2.0 | 5.0 | 0.00 | 0.00 | 0.00 | 36 | 1013.4 |
| 20260507015021 | 67 | 213 | 2.0 | 4.0 | 0.00 | 0.00 | 0.00 | 36 | 1013.2 |
| 20260507014554 | 68 | 217 | 2.0 | 7.0 | 0.00 | 0.00 | 0.00 | 34 | 1013.1 |
| 20260507014023 | 68 | 225 | 0.0 | 7.0 | 0.00 | 0.00 | 0.00 | 35 | 1013.2 |
| 20260507013534 | 68 | 263 | 2.0 | 8.0 | 0.00 | 0.00 | 0.00 | 34 | 1013.3 |
| 20260507013119 | 69 | 279 | 2.0 | 11.0 | 0.00 | 0.00 | 0.00 | 34 | 1013.3 |
| 20260507012529 | 69 | 239 | 2.0 | 8.0 | 0.00 | 0.00 | 0.00 | 34 | 1013.3 |
| 20260507012018 | 70 | 301 | 1.0 | 8.0 | 0.00 | 0.00 | 0.00 | 32 | 1013.3 |
| 20260507011618 | 70 | 257 | 3.0 | 8.0 | 0.00 | 0.00 | 0.00 | 31 | 1013.1 |
| 20260507011042 | 70 | 11 | 2.0 | 8.0 | 0.00 | 0.00 | 0.00 | 31 | 1013.3 |
| 20260507010520 | 71 | 283 | 2.0 | 9.0 | 0.00 | 0.00 | 0.00 | 31 | 1013.2 |
| 20260507010137 | 71 | 77 | 2.0 | 9.0 | 0.00 | 0.00 | 0.00 | 30 | 1013.3 |
| 20260507005521 | 72 | 277 | 2.0 | 6.0 | 0.00 | 0.00 | 0.00 | 31 | 1013.1 |
| 20260507005018 | 72 | 275 | 2.0 | 9.0 | 0.00 | 0.00 | 0.00 | 30 | 1013.3 |
| 20260507004637 | 72 | 273 | 2.0 | 8.0 | 0.00 | 0.00 | 0.00 | 30 | 1013.1 |
| 20260507004021 | 72 | 256 | 4.0 | 8.0 | 0.00 | 0.00 | 0.00 | 29 | 1013.3 |
| 20260507003531 | 73 | 223 | 3.0 | 11.0 | 0.00 | 0.00 | 0.00 | 28 | 1013.3 |
| 20260507003129 | 74 | 269 | 3.0 | 10.0 | 0.00 | 0.00 | 0.00 | 28 | 1013.4 |
| 20260507002531 | 74 | 277 | 4.0 | 9.0 | 0.00 | 0.00 | 0.00 | 28 | 1013.4 |
| 20260507002019 | 75 | 223 | 2.0 | 15.0 | 0.00 | 0.00 | 0.00 | 28 | 1013.3 |
| 20260507001622 | 75 | 335 | 5.0 | 15.0 | 0.00 | 0.00 | 0.00 | 28 | 1013.4 |
| 20260507001024 | 75 | 260 | 1.0 | 9.0 | 0.00 | 0.00 | 0.00 | 28 | 1013.2 |
| 20260507000514 | 75 | 235 | 3.0 | 9.0 | 0.00 | 0.00 | 0.00 | 28 | 1013.1 |
| 20260507000118 | 76 | 273 | 2.0 | 12.0 | 0.00 | 0.00 | 0.00 | 28 | 1012.9 |
| 20260506235541 | 76 | 206 | 4.0 | 12.0 | 0.00 | 0.00 | 0.00 | 27 | 1012.9 |
| 20260506235032 | 76 | 300 | 3.0 | 10.0 | 0.00 | 0.00 | 0.00 | 27 | 1012.9 |
| 20260506234609 | 76 | 338 | 4.0 | 10.0 | 0.00 | 0.00 | 0.00 | 28 | 1012.8 |
| 20260506234023 | 76 | 250 | 2.0 | 11.0 | 0.00 | 0.00 | 0.00 | 27 | 1012.8 |
| 20260506233533 | 76 | 302 | 3.0 | 13.0 | 0.00 | 0.00 | 0.00 | 27 | 1012.8 |
| 20260506233107 | 77 | 320 | 5.0 | 13.0 | 0.00 | 0.00 | 0.00 | 27 | 1012.6 |
| 20260506232520 | 77 | 327 | 4.0 | 10.0 | 0.00 | 0.00 | 0.00 | 26 | 1012.7 |
| 20260506232031 | 77 | 321 | 4.0 | 9.0 | 0.00 | 0.00 | 0.00 | 27 | 1012.5 |
| 20260506231612 | 77 | 260 | 3.0 | 9.0 | 0.00 | 0.00 | 0.00 | 28 | 1012.6 |
| 20260506231013 | 77 | 242 | 2.0 | 6.0 | 0.00 | 0.00 | 0.00 | 30 | 1012.5 |
| 20260506230535 | 77 | 291 | 2.0 | 10.0 | 0.00 | 0.00 | 0.00 | 29 | 1012.6 |
| 20260506230115 | 77 | 31 | 2.0 | 10.0 | 0.00 | 0.00 | 0.00 | 30 | 1012.5 |
| 20260506225518 | 76 | 343 | 3.0 | 5.0 | 0.00 | 0.00 | 0.00 | 29 | 1012.5 |
| 20260506225017 | 76 | 223 | 2.0 | 9.0 | 0.00 | 0.00 | 0.00 | 31 | 1012.7 |
| 20260506224614 | 76 | 294 | 2.0 | 10.0 | 0.00 | 0.00 | 0.00 | 30 | 1012.8 |
| 20260506224042 | 76 | 290 | 3.0 | 10.0 | 0.00 | 0.00 | 0.00 | 29 | 1012.8 |
| 20260506223540 | 76 | 351 | 2.0 | 7.0 | 0.00 | 0.00 | 0.00 | 31 | 1012.8 |
| 20260506223101 | 76 | 257 | 3.0 | 9.0 | 0.00 | 0.00 | 0.00 | 29 | 1012.9 |
| 20260506222533 | 76 | 294 | 3.0 | 9.0 | 0.00 | 0.00 | 0.00 | 29 | 1012.9 |
| 20260506222037 | 76 | 228 | 3.0 | 9.0 | 0.00 | 0.00 | 0.00 | 28 | 1012.9 |
| 20260506221611 | 76 | 287 | 2.0 | 8.0 | 0.00 | 0.00 | 0.00 | 29 | 1012.9 |
| 20260506221020 | 76 | 42 | 2.0 | 11.0 | 0.00 | 0.00 | 0.00 | 29 | 1012.8 |
| 20260506220522 | 76 | 215 | 3.0 | 9.0 | 0.00 | 0.00 | 0.00 | 30 | 1013.0 |
| 20260506220110 | 76 | 250 | 4.0 | 9.0 | 0.00 | 0.00 | 0.00 | 29 | 1013.1 |
| 20260506215517 | 77 | 298 | 3.0 | 10.0 | 0.00 | 0.00 | 0.00 | 30 | 1013.0 |
| 20260506215036 | 77 | 339 | 3.0 | 12.0 | 0.00 | 0.00 | 0.00 | 29 | 1013.0 |
| 20260506214618 | 77 | 317 | 4.0 | 11.0 | 0.00 | 0.00 | 0.00 | 29 | 1013.1 |
| 20260506214037 | 77 | 319 | 2.0 | 12.0 | 0.00 | 0.00 | 0.00 | 30 | 1013.0 |
| 20260506213543 | 77 | 20 | 3.0 | 12.0 | 0.00 | 0.00 | 0.00 | 30 | 1012.9 |
| 20260506213106 | 77 | 275 | 3.0 | 11.0 | 0.00 | 0.00 | 0.00 | 29 | 1013.0 |
| 20260506212544 | 77 | 340 | 3.0 | 11.0 | 0.00 | 0.00 | 0.00 | 29 | 1013.1 |
| 20260506212041 | 78 | 298 | 3.0 | 14.0 | 0.00 | 0.00 | 0.00 | 29 | 1013.0 |
| 20260506211608 | 78 | 255 | 2.0 | 7.0 | 0.00 | 0.00 | 0.00 | 29 | 1013.1 |
| 20260506211036 | 78 | 352 | 3.0 | 9.0 | 0.00 | 0.00 | 0.00 | 28 | 1013.3 |
| 20260506210541 | 79 | 317 | 2.0 | 9.0 | 0.00 | 0.00 | 0.00 | 28 | 1013.3 |
| 20260506210040 | 79 | 316 | 2.0 | 8.0 | 0.00 | 0.00 | 0.00 | 29 | 1013.2 |
| 20260506205524 | 78 | 150 | 2.0 | 8.0 | 0.00 | 0.00 | 0.00 | 30 | 1013.2 |
| 20260506205024 | 78 | 299 | 3.0 | 8.0 | 0.00 | 0.00 | 0.00 | 29 | 1013.1 |
| 20260506204634 | 79 | 289 | 4.0 | 9.0 | 0.00 | 0.00 | 0.00 | 29 | 1013.2 |
| 20260506204023 | 79 | 280 | 2.0 | 8.0 | 0.00 | 0.00 | 0.00 | 30 | 1013.3 |
| 20260506203524 | 79 | 272 | 2.0 | 8.0 | 0.00 | 0.00 | 0.00 | 29 | 1013.3 |
| 20260506203110 | 79 | 261 | 3.0 | 8.0 | 0.00 | 0.00 | 0.00 | 28 | 1013.3 |
| 20260506202540 | 79 | 321 | 2.0 | 7.0 | 0.00 | 0.00 | 0.00 | 30 | 1013.3 |
| 20260506202024 | 79 | 352 | 3.0 | 7.0 | 0.00 | 0.00 | 0.00 | 28 | 1013.4 |
| 20260506201619 | 79 | 331 | 2.0 | 8.0 | 0.00 | 0.00 | 0.00 | 30 | 1013.3 |
| 20260506201025 | 79 | 304 | 3.0 | 8.0 | 0.00 | 0.00 | 0.00 | 30 | 1013.3 |
| 20260506200544 | 80 | 312 | 3.0 | 12.0 | 0.00 | 0.00 | 0.00 | 30 | 1013.2 |
| 20260506200101 | 80 | 347 | 3.0 | 12.0 | 0.00 | 0.00 | 0.00 | 30 | 1013.2 |
| 20260506195531 | 79 | 59 | 2.0 | 7.0 | 0.00 | 0.00 | 0.00 | 32 | 1013.1 |
| 20260506195027 | 79 | 194 | 3.0 | 8.0 | 0.00 | 0.00 | 0.00 | 31 | 1013.2 |
| 20260506194627 | 78 | 5 | 1.0 | 9.0 | 0.00 | 0.00 | 0.00 | 32 | 1013.3 |
| 20260506194046 | 78 | 202 | 2.0 | 9.0 | 0.00 | 0.00 | 0.00 | 30 | 1013.5 |
| 20260506193517 | 78 | 336 | 2.0 | 10.0 | 0.00 | 0.00 | 0.00 | 31 | 1013.3 |
| 20260506193129 | 77 | 240 | 2.0 | 10.0 | 0.00 | 0.00 | 0.00 | 34 | 1013.3 |
| 20260506192555 | 77 | 143 | 3.0 | 7.0 | 0.00 | 0.00 | 0.00 | 32 | 1013.2 |
| 20260506192016 | 76 | 34 | 2.0 | 10.0 | 0.00 | 0.00 | 0.00 | 33 | 1013.3 |
| 20260506191610 | 77 | 9 | 3.0 | 10.0 | 0.00 | 0.00 | 0.00 | 33 | 1013.3 |
| 20260506191029 | 77 | 321 | 2.0 | 9.0 | 0.00 | 0.00 | 0.00 | 33 | 1013.4 |
| 20260506190544 | 77 | 235 | 3.0 | 9.0 | 0.00 | 0.00 | 0.00 | 33 | 1013.4 |
| 20260506190130 | 77 | 250 | 2.0 | 9.0 | 0.00 | 0.00 | 0.00 | 33 | 1013.5 |
| 20260506185522 | 78 | 333 | 3.0 | 10.0 | 0.00 | 0.00 | 0.00 | 34 | 1013.5 |
| 20260506185024 | 78 | 225 | 2.0 | 7.0 | 0.00 | 0.00 | 0.00 | 35 | 1013.4 |
| 20260506184626 | 78 | 220 | 2.0 | 7.0 | 0.00 | 0.00 | 0.00 | 34 | 1013.4 |
| 20260506184024 | 77 | 243 | 1.0 | 8.0 | 0.00 | 0.00 | 0.00 | 35 | 1013.4 |
| 20260506183525 | 77 | 265 | 3.0 | 8.0 | 0.00 | 0.00 | 0.00 | 34 | 1013.3 |
| 20260506183125 | 76 | 279 | 3.0 | 7.0 | 0.00 | 0.00 | 0.00 | 35 | 1013.4 |
| 20260506182540 | 76 | 270 | 2.0 | 8.0 | 0.00 | 0.00 | 0.00 | 34 | 1013.5 |
| 20260506182021 | 76 | 221 | 1.0 | 8.0 | 0.00 | 0.00 | 0.00 | 35 | 1013.4 |
| 20260506181602 | 76 | 150 | 2.0 | 6.0 | 0.00 | 0.00 | 0.00 | 34 | 1013.4 |
| 20260506181021 | 77 | 256 | 2.0 | 5.0 | 0.00 | 0.00 | 0.00 | 34 | 1013.6 |
| 20260506180520 | 77 | 283 | 1.0 | 4.0 | 0.00 | 0.00 | 0.00 | 34 | 1013.4 |
| 20260506180109 | 77 | 34 | 1.0 | 7.0 | 0.00 | 0.00 | 0.00 | 34 | 1013.4 |
| 20260506175520 | 77 | 209 | 1.0 | 8.0 | 0.00 | 0.00 | 0.00 | 34 | 1013.5 |
| 20260506175019 | 77 | 300 | 1.0 | 14.0 | 0.00 | 0.00 | 0.00 | 33 | 1013.4 |
| 20260506174618 | 77 | 291 | 2.0 | 9.0 | 0.00 | 0.00 | 0.00 | 33 | 1013.4 |
| 20260506174037 | 77 | 248 | 3.0 | 9.0 | 0.00 | 0.00 | 0.00 | 33 | 1013.5 |
| 20260506173544 | 77 | 292 | 3.0 | 9.0 | 0.00 | 0.00 | 0.00 | 31 | 1013.5 |
| 20260506173121 | 77 | 272 | 2.0 | 9.0 | 0.00 | 0.00 | 0.00 | 32 | 1013.4 |
| 20260506172533 | 77 | 327 | 3.0 | 9.0 | 0.00 | 0.00 | 0.00 | 33 | 1013.4 |
| 20260506172024 | 76 | 281 | 2.0 | 10.0 | 0.00 | 0.00 | 0.00 | 33 | 1013.4 |
| 20260506171619 | 76 | 259 | 2.0 | 10.0 | 0.00 | 0.00 | 0.00 | 35 | 1013.3 |
| 20260506171040 | 76 | 205 | 4.0 | 8.0 | 0.00 | 0.00 | 0.00 | 34 | 1013.2 |
| 20260506170545 | 76 | 313 | 3.0 | 8.0 | 0.00 | 0.00 | 0.00 | 34 | 1013.3 |
| 20260506170107 | 76 | 54 | 2.0 | 6.0 | 0.00 | 0.00 | 0.00 | 34 | 1013.4 |
| 20260506165527 | 76 | 51 | 2.0 | 5.0 | 0.00 | 0.00 | 0.00 | 36 | 1013.3 |
| 20260506165037 | 75 | 348 | 1.0 | 6.0 | 0.00 | 0.00 | 0.00 | 37 | 1013.5 |
| 20260506164558 | 74 | 33 | 2.0 | 6.0 | 0.00 | 0.00 | 0.00 | 36 | 1013.4 |
| 20260506164044 | 74 | 238 | 2.0 | 6.0 | 0.00 | 0.00 | 0.00 | 35 | 1013.4 |
| 20260506163531 | 73 | 252 | 3.0 | 6.0 | 0.00 | 0.00 | 0.00 | 35 | 1013.4 |
| 20260506163054 | 73 | 219 | 2.0 | 9.0 | 0.00 | 0.00 | 0.00 | 38 | 1013.5 |
| 20260506162524 | 73 | 269 | 3.0 | 7.0 | 0.00 | 0.00 | 0.00 | 37 | 1013.6 |
| 20260506162039 | 72 | 218 | 3.0 | 8.0 | 0.00 | 0.00 | 0.00 | 38 | 1013.7 |
| 20260506161610 | 72 | 255 | 3.0 | 8.0 | 0.00 | 0.00 | 0.00 | 40 | 1013.8 |
| 20260506161019 | 72 | 74 | 3.0 | 7.0 | 0.00 | 0.00 | 0.00 | 40 | 1013.7 |
| 20260506160524 | 71 | 236 | 2.0 | 8.0 | 0.00 | 0.00 | 0.00 | 41 | 1013.9 |
| 20260506160112 | 71 | 219 | 2.0 | 10.0 | 0.00 | 0.00 | 0.00 | 41 | 1013.8 |
| 20260506155541 | 71 | 273 | 3.0 | 7.0 | 0.00 | 0.00 | 0.00 | 40 | 1013.9 |
| 20260506155041 | 70 | 15 | 2.0 | 7.0 | 0.00 | 0.00 | 0.00 | 43 | 1013.8 |
| 20260506154618 | 69 | 73 | 2.0 | 8.0 | 0.00 | 0.00 | 0.00 | 43 | 1013.7 |
| 20260506154025 | 69 | 205 | 3.0 | 8.0 | 0.00 | 0.00 | 0.00 | 43 | 1013.8 |
| 20260506153515 | 68 | 256 | 3.0 | 9.0 | 0.00 | 0.00 | 0.00 | 44 | 1013.7 |
| 20260506153055 | 67 | 252 | 2.0 | 9.0 | 0.00 | 0.00 | 0.00 | 45 | 1013.8 |
| 20260506152537 | 67 | 343 | 3.0 | 9.0 | 0.00 | 0.00 | 0.00 | 44 | 1013.8 |
| 20260506152017 | 66 | 241 | 2.0 | 9.0 | 0.00 | 0.00 | 0.00 | 45 | 1013.9 |
| 20260506151614 | 66 | 257 | 1.0 | 4.0 | 0.00 | 0.00 | 0.00 | 46 | 1013.8 |
| 20260506151029 | 65 | 216 | 2.0 | 4.0 | 0.00 | 0.00 | 0.00 | 46 | 1013.9 |
| 20260506150534 | 65 | 328 | 1.0 | 6.0 | 0.00 | 0.00 | 0.00 | 46 | 1013.9 |
| 20260506150110 | 64 | 230 | 2.0 | 6.0 | 0.00 | 0.00 | 0.00 | 46 | 1014.0 |
| 20260506145531 | 64 | 352 | 1.0 | 5.0 | 0.00 | 0.00 | 0.00 | 48 | 1013.9 |
| 20260506145023 | 63 | 351 | 1.0 | 7.0 | 0.00 | 0.00 | 0.00 | 49 | 1013.9 |
| 20260506144612 | 63 | 57 | 1.0 | 7.0 | 0.00 | 0.00 | 0.00 | 48 | 1013.9 |
| 20260506144042 | 63 | 252 | 1.0 | 6.0 | 0.00 | 0.00 | 0.00 | 48 | 1013.9 |
| 20260506143533 | 62 | 215 | 1.0 | 5.0 | 0.00 | 0.00 | 0.00 | 49 | 1014.0 |
| 20260506143047 | 62 | 185 | 1.0 | 5.0 | 0.00 | 0.00 | 0.00 | 48 | 1013.9 |
| 20260506142532 | 62 | 266 | 1.0 | 5.0 | 0.00 | 0.00 | 0.00 | 49 | 1013.9 |
| 20260506142019 | 62 | 181 | 2.0 | 8.0 | 0.00 | 0.00 | 0.00 | 48 | 1013.8 |
| 20260506141610 | 61 | 238 | 3.0 | 8.0 | 0.00 | 0.00 | 0.00 | 50 | 1014.0 |
| 20260506141110 | 61 | 244 | 2.0 | 8.0 | 0.00 | 0.00 | 0.00 | 51 | 1013.9 |
| 20260506140531 | 59 | 304 | 2.0 | 8.0 | 0.00 | 0.00 | 0.00 | 52 | 1014.0 |
| 20260506140104 | 59 | 208 | 3.0 | 5.0 | 0.00 | 0.00 | 0.00 | 54 | 1014.1 |
| 20260506135524 | 59 | 216 | 2.0 | 5.0 | 0.00 | 0.00 | 0.00 | 55 | 1013.9 |
| 20260506135019 | 58 | 229 | 2.0 | 5.0 | 0.00 | 0.00 | 0.00 | 56 | 1014.0 |
| 20260506134607 | 58 | 277 | 2.0 | 5.0 | 0.00 | 0.00 | 0.00 | 55 | 1014.0 |
| 20260506134042 | 57 | 234 | 2.0 | 6.0 | 0.00 | 0.00 | 0.00 | 57 | 1014.1 |
| 20260506133537 | 56 | 209 | 2.0 | 6.0 | 0.00 | 0.00 | 0.00 | 58 | 1014.0 |
| 20260506133103 | 55 | 215 | 3.0 | 5.0 | 0.00 | 0.00 | 0.00 | 58 | 1014.0 |
| 20260506132538 | 55 | 246 | 2.0 | 5.0 | 0.00 | 0.00 | 0.00 | 58 | 1014.0 |
| 20260506132019 | 54 | 234 | 2.0 | 5.0 | 0.00 | 0.00 | 0.00 | 58 | 1014.0 |
| 20260506131606 | 54 | 227 | 2.0 | 5.0 | 0.00 | 0.00 | 0.00 | 59 | 1013.9 |
| 20260506131042 | 54 | 215 | 3.0 | 5.0 | 0.00 | 0.00 | 0.00 | 60 | 1013.9 |
| 20260506130518 | 54 | 239 | 3.0 | 8.0 | 0.00 | 0.00 | 0.00 | 60 | 1013.9 |
| 20260506130113 | 53 | 227 | 4.0 | 8.0 | 0.00 | 0.00 | 0.00 | 60 | 1013.9 |
| 20260506125532 | 53 | 257 | 3.0 | 5.0 | 0.00 | 0.00 | 0.00 | 60 | 1014.0 |
| 20260506125030 | 54 | 225 | 3.0 | 5.0 | 0.00 | 0.00 | 0.00 | 59 | 1014.1 |
| 20260506124627 | 54 | 229 | 3.0 | 5.0 | 0.00 | 0.00 | 0.00 | 59 | 1014.1 |
| 20260506124039 | 53 | 263 | 3.0 | 5.0 | 0.00 | 0.00 | 0.00 | 60 | 1014.1 |
| 20260506123541 | 53 | 205 | 3.0 | 5.0 | 0.00 | 0.00 | 0.00 | 60 | 1013.9 |
| 20260506123101 | 53 | 245 | 3.0 | 4.0 | 0.00 | 0.00 | 0.00 | 61 | 1014.0 |
| 20260506122600 | 53 | 252 | 3.0 | 6.0 | 0.00 | 0.00 | 0.00 | 60 | 1013.9 |
| 20260506122041 | 54 | 259 | 2.0 | 6.0 | 0.00 | 0.00 | 0.00 | 59 | 1013.9 |
| 20260506121559 | 54 | 258 | 3.0 | 7.0 | 0.00 | 0.00 | 0.00 | 59 | 1013.8 |
| 20260506121021 | 53 | 221 | 2.0 | 4.0 | 0.00 | 0.00 | 0.00 | 59 | 1013.8 |
| 20260506120527 | 53 | 219 | 2.0 | 4.0 | 0.00 | 0.00 | 0.00 | 59 | 1013.8 |
| 20260506120121 | 54 | 267 | 2.0 | 4.0 | 0.00 | 0.00 | 0.00 | 59 | 1013.9 |
| 20260506115542 | 54 | 221 | 2.0 | 4.0 | 0.00 | 0.00 | 0.00 | 59 | 1013.9 |
| 20260506115024 | 53 | 248 | 2.0 | 4.0 | 0.00 | 0.00 | 0.00 | 60 | 1013.8 |
| 20260506114613 | 53 | 234 | 2.0 | 4.0 | 0.00 | 0.00 | 0.00 | 61 | 1013.8 |
| 20260506114031 | 54 | 234 | 2.0 | 4.0 | 0.00 | 0.00 | 0.00 | 60 | 1013.7 |
| 20260506113515 | 54 | 240 | 2.0 | 4.0 | 0.00 | 0.00 | 0.00 | 59 | 1013.7 |
| 20260506113102 | 54 | 229 | 2.0 | 5.0 | 0.00 | 0.00 | 0.00 | 59 | 1013.7 |
| 20260506112524 | 54 | 263 | 2.0 | 5.0 | 0.00 | 0.00 | 0.00 | 59 | 1013.7 |
| 20260506112045 | 54 | 248 | 2.0 | 4.0 | 0.00 | 0.00 | 0.00 | 59 | 1013.9 |
| 20260506111618 | 54 | 239 | 2.0 | 4.0 | 0.00 | 0.00 | 0.00 | 59 | 1013.8 |
| 20260506111020 | 54 | 231 | 2.0 | 4.0 | 0.00 | 0.00 | 0.00 | 60 | 1013.7 |
| 20260506110533 | 54 | 252 | 2.0 | 4.0 | 0.00 | 0.00 | 0.00 | 61 | 1013.6 |
| 20260506110123 | 54 | 265 | 2.0 | 5.0 | 0.00 | 0.00 | 0.00 | 60 | 1013.6 |
| 20260506105530 | 54 | 238 | 3.0 | 5.0 | 0.00 | 0.00 | 0.00 | 60 | 1013.5 |
| 20260506105026 | 54 | 229 | 2.0 | 4.0 | 0.00 | 0.00 | 0.00 | 59 | 1013.7 |
| 20260506104622 | 55 | 251 | 2.0 | 4.0 | 0.00 | 0.00 | 0.00 | 59 | 1013.5 |
| 20260506104030 | 55 | 232 | 2.0 | 5.0 | 0.00 | 0.00 | 0.00 | 57 | 1013.5 |